sat.trackr.live / text

‹ back to catalog

STARLINK-36615

NORAD 67621 · 2026-020E

PAYLOAD ACTIVE UNKNOWN

§ Identity

Operator
Country
US
Launch date
2026-01-30
Launch site
AFETR
Launch vehicle
Mass (kg)
RCS (m²)

Purposes: comms

External: N2YO · Heavens-Above · Gunter

§ Orbital elements

Epoch: 2026-09-19T07:47:20.853024Z

Period
94.27 min
Inclination
43.0001°
Eccentricity
0.0001715
Mean motion
15.27587425 rev/d
Perigee alt
481.9 km
Apogee alt
484.2 km
Semi-major
6,861.2 km
B*
3.4180e-4
RAAN
126.5624°
Arg perigee
276.4837°
Mean anomaly
83.5819°
Rev number
3,572

§ Raw data

STARLINK-366151 67621U 26020E   26262.32454691  .00009157  00000+0  34180-3 0  99942 67621  43.0001 126.5624 0001715 276.4837  83.5819 15.27587425 35726

JSON: /api/v1/satellites/67621 · /tle

For live sub-satellite position, see the globe view (requires WebGL).

§ Visibility from observer

Set your observer location to see the next 7 days of passes ≥ 10°. The values pass through the URL so the page stays shareable.

No JS? Fill the form by hand. The geolocation button needs JavaScript.